TIME,DELAY(SENSOR),PRES,OXYGEN,RAWTEMP,T(OPTODE),TCPHASE,FLUOR,BETA(BETA700),BETA(BETA412),BETA(BETA440),CDOM,C(CSC),ED(ED412.20),ED(ED444.00),ED(ED489.60),ED(ED554.30),LU(LU412.10),LU(LU443.90),LU(LU489.70),LU(LU554.70),COMP,TILTX,TILTY,CHECK
1362541427,5807,872.5900268554688000,32.8633117675781250,559.7523193359375000,4.4935722351074220,56.6235694885253900,55,99,100,78,81,15529,0,0,0,0,2147122441,2147771574,2147572498,2147567387,158,2,13,48181
1362545023,5808,942.4699707031250000,39.0898399353027340,567.6115722656250000,4.2497558593750000,55.7237205505371100,55,102,99,78,82,15529,0,0,0,0,2147121216,2147766893,2147572077,2147567387,114,2,13,15575
1362548623,5808,949.3900146484375000,40.3317604064941400,567.8217773437500000,4.2432289123535160,55.5450401306152340,55,98,100,78,82,15526,0,0,0,0,2147123483,2147773366,2147571757,2147567789,3555,2,13,35512
1362552223,5812,984.5999755859375000,40.6132698059082000,569.1867065429688000,4.2008318901062010,55.5164184570312500,55,97,100,79,82,15516,0,0,0,0,2147125586,2147777929,2147576256,2147567305,51,2,13,44194
1362555823,5812,985.5300292968750000,40.9318504333496100,569.5053710937500000,4.1909289360046390,55.4724006652832000,56,98,100,78,82,15526,0,0,0,0,2147128310,2147772288,2147570194,2147566445,43,2,13,35677
1362559423,5811,984.2700195312500000,41.2462501525878900,570.4110717773438000,4.1627850532531740,55.4371604919433600,54,97,100,78,81,15518,0,0,0,0,2147120850,2147770432,2147575661,2147567149,3299,2,13,22053
1362563023,5811,990.7700195312500000,41.3616409301757800,570.6790161132812000,4.1544609069824220,55.4230003356933600,55,98,100,77,82,15516,0,0,0,0,2147121837,2147767360,2147573632,2147567442,139,2,13,36903
1362566623,5809,993.8900146484375000,41.2958297729492200,571.1057739257812000,4.1411929130554200,55.4376106262207000,56,97,101,77,81,15522,0,0,0,0,2147122450,2147766976,2147574893,2147566592,212,2,13,47664
1362570223,5810,991.8400268554688000,41.4035911560058600,570.6785888671875000,4.1544690132141110,55.4159507751464840,55,97,101,77,82,15519,0,0,0,0,2147121252,2147770422,2147568813,2147568091,3429,2,13,19198
1362573823,5810,983.9099731445312000,41.7578887939453100,571.4238281250000000,4.1313061714172360,55.3680992126464840,55,98,99,84,83,15520,0,0,0,0,2147121161,2147770971,2147570176,2147568722,3349,2,13,49685
1362577423,5810,983.7399902343750000,41.7449493408203100,571.3887939453125000,4.1323947906494140,55.3697395324707000,55,98,99,78,81,15515,0,0,0,0,2147123629,2147774336,2147575067,2147563766,3543,2,13,55624
1362581023,5808,985.7899780273438000,41.8059997558593750,571.5645141601562000,4.1269340515136720,55.3622703552246100,55,99,100,79,82,15519,0,0,0,0,2147124178,2147770788,2147574912,2147566866,431,2,13,47172
1362584623,5811,989.2700195312500000,41.4818382263183600,571.8615722656250000,4.1176967620849610,55.4136009216308600,55,98,99,77,82,15516,0,0,0,0,2147121691,2147774921,2147574491,2147570733,32,2,13,43198
1362588223,5813,986.1300048828125000,42.0210914611816400,572.0485229492188000,4.1118850708007810,55.3372306823730500,55,99,101,78,82,15477,0,0,0,0,2147120941,2147769298,2147573997,2147567570,52,3,13,11065
1362591823,5812,985.7899780273438000,42.4901809692382800,572.9608764648438000,4.0835127830505370,55.2819900512695300,54,99,101,77,80,15512,0,0,0,0,2147124379,2147771062,2147575542,2147569746,3566,2,13,51525
1362595423,5808,983.4899902343750000,42.6066589355468750,572.7448120117188000,4.0902328491210940,55.2619285583496100,54,98,100,77,82,15513,0,0,0,0,2147123858,2147772626,2147575021,2147569792,163,2,13,18741
1362599023,5807,981.0200195312500000,42.5274810791015600,572.7468261718750000,4.0901718139648440,55.2740287780761700,55,98,100,78,81,15516,0,0,0,0,2147124086,2147771821,2147569362,2147566034,553,2,13,26219
1362602623,5810,989.1500244140625000,42.3602905273437500,572.9667968750000000,4.0833277702331540,55.3012504577636700,54,98,100,79,81,15502,0,0,0,0,2147119789,2147768411,2147573174,2147569581,13,3,13,56636
1362606223,5808,986.4199829101562000,42.3308982849121100,572.6525268554688000,4.0931048393249510,55.3009910583496100,55,99,100,78,81,15515,0,0,0,0,2147125650,2147772781,2147572132,2147565440,463,2,13,4370
1362609823,5809,988.3200073242188000,42.0472297668457000,573.5167236328125000,4.0662269592285160,55.3491706848144500,55,96,100,78,81,15514,0,0,0,0,2147124242,2147773696,2147572571,2147568201,3385,2,13,35544
1362613423,5809,989.9299926757812000,42.5345115661621100,572.8886108398438000,4.0857601165771480,55.2770118713378900,54,99,100,78,82,15514,0,0,0,0,2147123081,2147768731,2147575478,2147568530,252,2,13,6316
1362617023,5808,995.4299926757812000,42.4495697021484400,572.7263793945312000,4.0908031463623050,55.2865486145019500,55,98,101,78,82,15514,0,0,0,0,2147124187,2147771172,2147569590,2147565540,319,2,13,44452
1362620623,5810,987.5100097656250000,42.3246383666992200,572.5966796875000000,4.0948390960693360,55.2986106872558600,55,99,100,77,81,15514,0,0,0,0,2147124928,2147763099,2147572699,2147564873,185,2,13,55707
1362624223,5811,986.6799926757812000,42.0781898498535160,572.5435791015625000,4.0964908599853520,55.3333816528320300,56,100,100,78,82,15514,0,0,0,0,2147121792,2147770569,2147573769,2147565869,724,2,13,56928
1362627823,5812,995.6300048828125000,41.6161994934082000,571.4531860351562000,4.1303939819335940,55.3946418762207000,53,98,100,78,82,15513,0,0,0,0,2147123099,2147778020,2147570998,2147564534,90,2,13,39522
1362631423,5813,1002.5000000000000000,41.5820693969726560,571.2432861328125000,4.1369171142578125,55.3918991088867200,55,98,100,77,82,15512,0,0,0,0,2147121700,2147762770,2147571456,2147570276,3190,2,13,23176
1362635023,5811,1003.4600219726562000,41.5185089111328100,571.0800781250000000,4.1419930458068850,55.4041099548339840,56,98,100,78,81,15508,0,0,0,0,2147121883,2147770514,2147572233,2147567360,3556,2,13,36285
1362638623,5810,1003.7500000000000000,40.2114295959472660,570.1702270507812000,4.1702728271484375,55.5836791992187500,54,98,100,79,81,15510,0,0,0,0,2147124452,2147773165,2147575881,2147564955,234,2,13,12806
1362642223,5809,999.6900024414062000,40.3034591674804700,570.3148193359375000,4.1657772064208980,55.5713882446289060,54,97,100,78,82,15508,0,0,0,0,2147122788,2147772608,2147572059,2147567908,357,2,13,1702
1362645823,5809,1002.2100219726562000,41.1065711975097660,571.1107177734375000,4.1410408020019530,55.4621009826660160,55,97,100,78,83,15510,0,0,0,0,2147125805,2147772544,2147569590,2147568374,3487,2,13,45511
1362649423,5807,985.6799926757812000,41.3763084411621100,571.6765136718750000,4.1234531402587890,55.4266891479492200,55,100,100,77,82,15510,0,0,0,0,2147122724,2147771876,2147574144,2147566793,811,2,13,20925
1362653023,5809,993.7199707031250000,41.4846000671386700,572.0546264648438000,4.1116938591003420,55.4157714843750000,55,98,100,78,81,15508,0,0,0,0,2147125120,2147773184,2147578176,2147570002,3519,2,13,55277
1362656623,5808,990.5499877929688000,42.1543197631835940,572.4946899414062000,4.0980110168457030,55.3244895935058600,55,98,99,78,82,15510,0,0,0,0,2147123885,2147769728,2147573184,2147567561,145,2,13,53411
1362660223,5807,993.4600219726562000,41.7970809936523440,571.9313964843750000,4.1155261993408200,55.3718605041503900,54,99,101,78,81,15498,0,0,0,0,2147123913,2147773056,2147574774,2147567954,3559,2,13,60029
1362663823,5810,999.8800048828125000,42.0028381347656250,572.3236083984375000,4.1033310890197750,55.3424301147460940,55,99,99,76,81,15508,0,0,0,0,2147121179,2147770962,2147571739,2147565110,350,2,13,63656
1362667423,5807,995.0999755859375000,40.9077415466308600,572.3698120117188000,4.1018939018249510,55.5040092468261700,55,98,101,79,80,15506,0,0,0,0,2147121435,2147769133,2147576475,2147569938,310,2,13,12061
1362671023,5809,996.0800170898438000,41.4005508422851560,572.3776855468750000,4.1016502380371090,55.4314308166503900,54,97,98,78,81,15509,0,0,0,0,2147122934,2147766235,2147569974,2147566409,126,2,13,45663
1362674623,5809,999.1500244140625000,41.4083404541015600,572.9846191406250000,4.0827770233154300,55.4418411254882800,55,97,99,78,82,15507,0,0,0,0,2147122733,2147767186,2147576685,2147566729,169,3,13,51347
1362678223,5809,994.6699829101562000,42.2517814636230500,572.8173217773438000,4.0879778861999510,55.3111305236816400,55,100,100,78,82,15505,0,0,0,0,2147124736,2147773056,2147572864,2147567744,3463,2,13,52028
1362681823,5810,992.1900024414062000,42.2847709655761700,573.2667236328125000,4.0740032196044920,55.3157386779785160,54,97,100,78,81,15502,0,0,0,0,2147124544,2147769782,2147573321,2147566500,207,2,13,57903
1362685423,5809,992.6099853515625000,42.4107894897460940,573.1724853515625000,4.0769290924072270,55.2961196899414060,55,99,99,79,82,15505,0,0,0,0,2147123062,2147768109,2147575003,2147567222,303,3,13,34245
1362687055,5810,993.1599731445312000,42.5564193725585940,573.4332885742188000,4.0688190460205080,55.2776298522949200,55,98,101,79,82,15504,0,0,0,0,2147125686,2147767552,2147575908,2147563428,649,2,13,2247
